Time,TemperatureF,DewpointF,PressureIn,WindDirection,WindDirectionDegrees,WindSpeedMPH,WindSpeedGustMPH,Humidity,HourlyPrecipIn,Conditions,Clouds,dailyrainin,SolarRadiationWatts/m^2,SoftwareType,DateUTC
2013-07-03 09:08:00,106.9,55.8,29.72,WSW,251,7.0,0.0,19,0.00,,,0.00,303,WeatherHawk,2013-07-03 16:08:00,
2013-07-03 09:13:00,106.9,55.8,29.72,WSW,251,7.0,0.0,19,0.00,,,0.00,303,WeatherHawk,2013-07-03 16:13:00,
2013-07-03 09:18:00,106.9,55.8,29.72,WSW,251,7.0,0.0,19,0.00,,,0.00,303,WeatherHawk,2013-07-03 16:18:00,
2013-07-03 09:29:00,88.2,59.3,29.77,SE,127,6.0,-999.0,38,0.00,,,0.00,115,WeatherHawk,2013-07-03 16:29:00,
2013-07-03 09:31:00,88.3,60.2,29.77,East,98,6.0,-999.0,39,0.00,,,0.00,121,WeatherHawk,2013-07-03 16:31:00,
2013-07-03 09:36:00,88.7,60.5,29.77,SSE,151,6.0,0.0,39,0.00,,,0.00,115,WeatherHawk,2013-07-03 16:36:00,
2013-07-03 09:38:00,88.7,60.5,29.77,SSE,151,6.0,0.0,39,0.00,,,0.00,115,WeatherHawk,2013-07-03 16:38:00,
2013-07-03 09:39:00,88.7,60.5,29.77,South,170,7.0,0.0,39,0.00,,,0.00,114,WeatherHawk,2013-07-03 16:39:00,
2013-07-03 09:40:00,88.9,60.7,29.77,SSE,167,8.0,0.0,39,0.00,,,0.00,111,WeatherHawk,2013-07-03 16:40:00,
2013-07-03 09:41:00,88.9,60.7,29.76,SSE,160,7.0,0.0,39,0.00,,,0.00,110,WeatherHawk,2013-07-03 16:41:00,
2013-07-03 09:44:00,88.9,60.7,29.77,SE,132,7.0,0.0,39,0.00,,,0.00,100,WeatherHawk,2013-07-03 16:44:00,
2013-07-03 09:48:00,88.9,60.7,29.77,SE,124,7.0,0.0,39,0.00,,,0.00,104,WeatherHawk,2013-07-03 16:48:00,
2013-07-03 09:53:00,88.9,60.7,29.78,SE,134,8.0,0.0,39,0.00,,,0.00,99,WeatherHawk,2013-07-03 16:53:00,
2013-07-03 09:56:00,89.4,60.4,29.78,ESE,119,7.0,0.0,38,0.00,,,0.00,114,WeatherHawk,2013-07-03 16:56:00,
2013-07-03 10:03:00,89.8,59.2,29.78,ESE,118,6.0,-999.0,36,0.00,,,0.00,145,WeatherHawk,2013-07-03 17:03:00,
2013-07-03 10:08:00,90.5,59.1,29.77,SSW,194,5.0,-999.0,35,0.00,,,0.00,200,WeatherHawk,2013-07-03 17:08:00,
2013-07-03 10:14:00,91.0,59.5,29.76,SSW,211,8.0,0.0,35,0.00,,,0.00,204,WeatherHawk,2013-07-03 17:14:00,
2013-07-03 10:17:00,91.6,59.2,29.77,SSW,192,5.0,0.0,34,0.00,,,0.00,191,WeatherHawk,2013-07-03 17:17:00,
2013-07-03 10:18:00,91.6,59.2,29.77,SSW,192,5.0,0.0,34,0.00,,,0.00,191,WeatherHawk,2013-07-03 17:18:00,
2013-07-03 10:19:00,91.8,59.4,29.77,South,175,6.0,0.0,34,0.00,,,0.00,184,WeatherHawk,2013-07-03 17:19:00,
2013-07-03 10:23:00,91.9,58.7,29.77,South,171,7.0,0.0,33,0.00,,,0.00,179,WeatherHawk,2013-07-03 17:23:00,
2013-07-03 10:25:00,92.1,58.8,29.77,South,176,7.0,0.0,33,0.00,,,0.00,181,WeatherHawk,2013-07-03 17:25:00,
2013-07-03 10:27:00,92.1,59.7,29.77,South,188,6.0,0.0,34,0.00,,,0.00,183,WeatherHawk,2013-07-03 17:27:00,
2013-07-03 10:30:00,92.1,59.7,29.77,ESE,123,5.0,0.0,34,0.00,,,0.00,188,WeatherHawk,2013-07-03 17:30:00,
2013-07-03 10:33:00,91.9,60.3,29.77,East,96,9.0,0.0,35,0.00,,,0.00,188,WeatherHawk,2013-07-03 17:33:00,
2013-07-03 10:38:00,91.6,61.6,29.78,ESE,115,11.0,0.0,37,0.00,,,0.00,192,WeatherHawk,2013-07-03 17:38:00,
2013-07-03 10:42:00,91.2,60.5,29.77,SSE,165,9.0,0.0,36,0.00,,,0.00,210,WeatherHawk,2013-07-03 17:42:00,
2013-07-03 10:44:00,91.4,60.6,29.77,SSE,156,10.0,0.0,36,0.00,,,0.00,223,WeatherHawk,2013-07-03 17:44:00,
2013-07-03 10:48:00,91.4,60.6,29.76,SSE,158,9.0,0.0,36,0.00,,,0.00,231,WeatherHawk,2013-07-03 17:48:00,
2013-07-03 10:51:00,91.8,61.7,29.76,South,184,9.0,0.0,37,0.00,,,0.00,321,WeatherHawk,2013-07-03 17:51:00,
2013-07-03 10:53:00,91.8,61.7,29.76,South,184,9.0,0.0,37,0.00,,,0.00,321,WeatherHawk,2013-07-03 17:53:00,
2013-07-03 10:58:00,92.7,60.1,29.75,SSW,199,10.0,0.0,34,0.00,,,0.00,495,WeatherHawk,2013-07-03 17:58:00,
2013-07-03 10:59:00,93.4,59.9,29.74,SSW,205,12.0,0.0,33,0.00,,,0.00,447,WeatherHawk,2013-07-03 17:59:00,
2013-07-03 11:04:00,94.6,60.1,29.75,South,187,11.0,0.0,32,0.00,,,0.00,446,WeatherHawk,2013-07-03 18:04:00,
2013-07-03 11:05:00,94.8,60.3,29.75,South,191,10.0,0.0,32,0.00,,,0.00,454,WeatherHawk,2013-07-03 18:05:00,
2013-07-03 11:07:00,94.8,60.3,29.76,South,178,13.0,0.0,32,0.00,,,0.00,455,WeatherHawk,2013-07-03 18:07:00,
2013-07-03 11:10:00,94.8,60.3,29.76,South,171,10.0,0.0,32,0.00,,,0.00,498,WeatherHawk,2013-07-03 18:10:00,
2013-07-03 11:13:00,95.2,59.7,29.75,SSE,157,12.0,0.0,31,0.00,,,0.00,540,WeatherHawk,2013-07-03 18:13:00,
2013-07-03 11:19:00,95.9,59.4,29.74,South,179,15.0,0.0,30,0.00,,,0.00,532,WeatherHawk,2013-07-03 18:19:00,
2013-07-03 11:22:00,96.4,58.9,29.74,South,184,16.0,0.0,29,0.00,,,0.00,570,WeatherHawk,2013-07-03 18:22:00,
2013-07-03 11:27:00,96.8,58.3,29.75,South,171,14.0,0.0,28,0.00,,,0.00,586,WeatherHawk,2013-07-03 18:27:00,
2013-07-03 11:32:00,97.5,57.9,29.75,SSE,165,10.0,0.0,27,0.00,,,0.00,473,WeatherHawk,2013-07-03 18:32:00,
2013-07-03 11:34:00,97.9,56.0,29.75,SSE,152,13.0,0.0,25,0.00,,,0.00,490,WeatherHawk,2013-07-03 18:34:00,
2013-07-03 11:38:00,98.2,54.0,29.76,SSE,168,11.0,0.0,23,0.00,,,0.00,531,WeatherHawk,2013-07-03 18:38:00,
2013-07-03 11:41:00,98.4,54.2,29.76,South,171,9.0,0.0,23,0.00,,,0.00,509,WeatherHawk,2013-07-03 18:41:00,
2013-07-03 11:42:00,98.6,54.3,29.76,SE,142,11.0,0.0,23,0.00,,,0.00,473,WeatherHawk,2013-07-03 18:42:00,
2013-07-03 11:44:00,99.0,53.4,29.76,SSE,159,8.0,0.0,22,0.00,,,0.00,473,WeatherHawk,2013-07-03 18:44:00,
2013-07-03 11:47:00,99.1,52.3,29.76,SSE,164,10.0,0.0,21,0.00,,,0.00,511,WeatherHawk,2013-07-03 18:47:00,
2013-07-03 11:49:00,99.5,55.1,29.76,SSE,151,11.0,0.0,23,0.00,,,0.00,494,WeatherHawk,2013-07-03 18:49:00,
2013-07-03 11:50:00,99.7,54.0,29.76,SSE,163,10.0,0.0,22,0.00,,,0.00,476,WeatherHawk,2013-07-03 18:50:00,
2013-07-03 11:52:00,99.9,54.1,29.76,SSE,156,11.0,-999.0,22,0.00,,,0.00,464,WeatherHawk,2013-07-03 18:52:00,
2013-07-03 11:56:00,99.9,54.1,29.76,SSE,154,9.0,0.0,22,0.00,,,0.00,448,WeatherHawk,2013-07-03 18:56:00,
2013-07-03 11:58:00,100.0,53.0,29.76,SSE,155,8.0,0.0,21,0.00,,,0.00,439,WeatherHawk,2013-07-03 18:58:00,
2013-07-03 11:59:00,100.0,53.0,29.76,SE,133,6.0,0.0,21,0.00,,,0.00,441,WeatherHawk,2013-07-03 18:59:00,
2013-07-03 12:02:00,100.0,53.0,29.76,South,177,8.0,-999.0,21,0.00,,,0.00,451,WeatherHawk,2013-07-03 19:02:00,
2013-07-03 12:03:00,100.4,53.3,29.76,South,185,6.0,0.0,21,0.00,,,0.00,462,WeatherHawk,2013-07-03 19:03:00,
2013-07-03 12:04:00,100.4,52.0,29.76,SSE,151,9.0,0.0,20,0.00,,,0.00,476,WeatherHawk,2013-07-03 19:04:00,
2013-07-03 12:09:00,100.6,52.1,29.76,ESE,104,6.0,0.0,20,0.00,,,0.00,622,WeatherHawk,2013-07-03 19:09:00,
2013-07-03 12:12:00,100.8,52.3,29.76,ESE,112,5.0,0.0,20,0.00,,,0.00,675,WeatherHawk,2013-07-03 19:12:00,
2013-07-03 12:17:00,100.9,51.0,29.76,SE,138,9.0,-999.0,19,0.00,,,0.00,732,WeatherHawk,2013-07-03 19:17:00,
2013-07-03 12:22:00,101.3,51.3,29.76,SSE,167,1.0,0.0,19,0.00,,,0.00,967,WeatherHawk,2013-07-03 19:22:00,
2013-07-03 12:26:00,101.8,50.3,29.75,SE,133,7.0,0.0,18,0.00,,,0.00,1383,WeatherHawk,2013-07-03 19:26:00,
2013-07-03 12:29:00,102.4,49.2,29.75,SE,139,9.0,0.0,17,0.00,,,0.00,994,WeatherHawk,2013-07-03 19:29:00,
2013-07-03 12:30:00,102.4,49.2,29.75,SE,139,7.0,0.0,17,0.00,,,0.00,1352,WeatherHawk,2013-07-03 19:30:00,
2013-07-03 12:35:00,102.9,51.2,29.75,ESE,113,4.0,0.0,18,0.00,,,0.00,1439,WeatherHawk,2013-07-03 19:35:00,
2013-07-03 12:37:00,102.9,51.2,29.75,ESE,103,4.0,0.0,18,0.00,,,0.00,1428,WeatherHawk,2013-07-03 19:37:00,
2013-07-03 12:40:00,103.3,49.9,29.75,SSW,197,7.0,0.0,17,0.00,,,0.00,682,WeatherHawk,2013-07-03 19:40:00,
2013-07-03 12:42:00,103.6,50.2,29.75,South,189,8.0,-999.0,17,0.00,,,0.00,736,WeatherHawk,2013-07-03 19:42:00,
2013-07-03 12:47:00,104.2,49.0,29.74,SW,219,7.0,0.0,16,0.00,,,0.00,751,WeatherHawk,2013-07-03 19:47:00,
2013-07-03 12:49:00,103.8,48.7,29.74,SSE,159,11.0,0.0,16,0.00,,,0.00,897,WeatherHawk,2013-07-03 19:49:00,
2013-07-03 12:52:00,103.5,48.4,29.74,SSE,150,12.0,-999.0,16,0.00,,,0.00,637,WeatherHawk,2013-07-03 19:52:00,
2013-07-03 12:53:00,102.9,48.0,29.74,SSE,164,7.0,0.0,16,0.00,,,0.00,1007,WeatherHawk,2013-07-03 19:53:00,
2013-07-03 12:58:00,103.6,48.6,29.73,South,178,10.0,0.0,16,0.00,,,0.00,858,WeatherHawk,2013-07-03 19:58:00,
2013-07-03 13:00:00,104.4,49.2,29.73,SSW,209,15.0,0.0,16,0.00,,,0.00,719,WeatherHawk,2013-07-03 20:00:00,
2013-07-03 13:02:00,104.4,47.4,29.73,SSW,196,11.0,0.0,15,0.00,,,0.00,796,WeatherHawk,2013-07-03 20:02:00,
2013-07-03 13:05:00,104.4,47.4,29.73,SSW,195,9.0,0.0,15,0.00,,,0.00,1259,WeatherHawk,2013-07-03 20:05:00,
2013-07-03 13:06:00,104.4,47.4,29.73,SSW,210,8.0,0.0,15,0.00,,,0.00,914,WeatherHawk,2013-07-03 20:06:00,
2013-07-03 13:12:00,104.5,47.6,29.73,SSW,213,7.0,-999.0,15,0.00,,,0.00,717,WeatherHawk,2013-07-03 20:12:00,
2013-07-03 13:17:00,104.5,47.6,29.73,South,170,6.0,0.0,15,0.00,,,0.00,762,WeatherHawk,2013-07-03 20:17:00,
2013-07-03 13:22:00,104.5,47.6,29.72,SSE,153,9.0,0.0,15,0.00,,,0.00,594,WeatherHawk,2013-07-03 20:22:00,
2013-07-03 13:27:00,105.3,48.1,29.72,SSE,164,8.0,-999.0,15,0.00,,,0.00,1006,WeatherHawk,2013-07-03 20:27:00,
2013-07-03 13:28:00,105.3,48.1,29.72,SSE,164,8.0,0.0,15,0.00,,,0.00,1006,WeatherHawk,2013-07-03 20:28:00,
2013-07-03 13:30:00,106.0,48.7,29.72,South,190,11.0,0.0,15,0.00,,,0.00,1238,WeatherHawk,2013-07-03 20:30:00,
2013-07-03 13:33:00,106.5,49.1,29.72,South,191,5.0,0.0,15,0.00,,,0.00,1158,WeatherHawk,2013-07-03 20:33:00,
2013-07-03 13:36:00,106.9,47.6,29.71,SSE,162,10.0,0.0,14,0.00,,,0.00,1172,WeatherHawk,2013-07-03 20:36:00,
2013-07-03 13:37:00,106.7,47.4,29.71,South,185,13.0,0.0,14,0.00,,,0.00,1117,WeatherHawk,2013-07-03 20:37:00,
2013-07-03 13:38:00,106.7,47.4,29.71,South,185,13.0,0.0,14,0.00,,,0.00,1117,WeatherHawk,2013-07-03 20:38:00,
2013-07-03 13:41:00,106.0,48.7,29.72,SSW,200,7.0,0.0,15,0.00,,,0.00,439,WeatherHawk,2013-07-03 20:41:00,
2013-07-03 13:43:00,105.8,48.6,29.72,SSW,201,5.0,-999.0,15,0.00,,,0.00,659,WeatherHawk,2013-07-03 20:43:00,
2013-07-03 13:48:00,106.3,49.0,29.71,SSW,196,6.0,0.0,15,0.00,,,0.00,883,WeatherHawk,2013-07-03 20:48:00,
2013-07-03 13:51:00,106.3,49.0,29.71,SSW,205,8.0,0.0,15,0.00,,,0.00,794,WeatherHawk,2013-07-03 20:51:00,
2013-07-03 13:53:00,106.0,48.7,29.71,SW,216,8.0,0.0,15,0.00,,,0.00,1102,WeatherHawk,2013-07-03 20:53:00,
2013-07-03 13:55:00,106.5,49.1,29.71,South,187,9.0,0.0,15,0.00,,,0.00,1085,WeatherHawk,2013-07-03 20:55:00,
2013-07-03 13:58:00,107.1,47.7,29.71,South,188,11.0,0.0,14,0.00,,,0.00,1084,WeatherHawk,2013-07-03 20:58:00,
2013-07-03 14:01:00,106.7,49.3,29.71,SSW,200,7.0,0.0,15,0.00,,,0.00,1085,WeatherHawk,2013-07-03 21:01:00,
2013-07-03 14:04:00,107.1,47.7,29.70,SSW,199,11.0,0.0,14,0.00,,,0.00,1086,WeatherHawk,2013-07-03 21:04:00,
2013-07-03 14:07:00,108.0,50.3,29.70,SW,224,12.0,0.0,15,0.00,,,0.00,1074,WeatherHawk,2013-07-03 21:07:00,
2013-07-03 14:09:00,107.8,48.3,29.70,SW,223,12.0,0.0,14,0.00,,,0.00,1089,WeatherHawk,2013-07-03 21:09:00,
2013-07-03 14:10:00,107.6,48.1,29.70,SW,219,9.0,0.0,14,0.00,,,0.00,1086,WeatherHawk,2013-07-03 21:10:00,
2013-07-03 14:13:00,107.2,47.8,29.70,SSW,212,11.0,-999.0,14,0.00,,,0.00,524,WeatherHawk,2013-07-03 21:13:00,
2013-07-03 14:15:00,106.9,49.4,29.70,SSW,203,9.0,0.0,15,0.00,,,0.00,961,WeatherHawk,2013-07-03 21:15:00,
2013-07-03 14:18:00,108.0,48.4,29.69,SW,222,11.0,0.0,14,0.00,,,0.00,550,WeatherHawk,2013-07-03 21:18:00,
2013-07-03 14:19:00,107.6,48.1,29.69,SW,225,9.0,0.0,14,0.00,,,0.00,573,WeatherHawk,2013-07-03 21:19:00,
2013-07-03 14:24:00,107.2,49.7,29.69,South,189,6.0,0.0,15,0.00,,,0.00,1006,WeatherHawk,2013-07-03 21:24:00,
2013-07-03 14:25:00,107.8,50.1,29.69,South,186,12.0,0.0,15,0.00,,,0.00,982,WeatherHawk,2013-07-03 21:25:00,
2013-07-03 14:26:00,108.1,50.4,29.69,SSW,194,11.0,0.0,15,0.00,,,0.00,970,WeatherHawk,2013-07-03 21:26:00,
2013-07-03 14:31:00,108.1,50.4,29.68,SSE,157,16.0,0.0,15,0.00,,,0.00,952,WeatherHawk,2013-07-03 21:31:00,
2013-07-03 14:33:00,108.1,50.4,29.68,SSE,157,16.0,0.0,15,0.00,,,0.00,952,WeatherHawk,2013-07-03 21:33:00,
2013-07-03 14:35:00,107.2,49.7,29.68,South,180,12.0,0.0,15,0.00,,,0.00,936,WeatherHawk,2013-07-03 21:35:00,
2013-07-03 14:37:00,108.1,50.4,29.68,SSW,192,14.0,0.0,15,0.00,,,0.00,926,WeatherHawk,2013-07-03 21:37:00,
2013-07-03 14:38:00,108.1,50.4,29.68,SSW,193,10.0,-999.0,15,0.00,,,0.00,926,WeatherHawk,2013-07-03 21:38:00,
2013-07-03 14:39:00,108.5,50.7,29.68,SSW,197,10.0,0.0,15,0.00,,,0.00,921,WeatherHawk,2013-07-03 21:39:00,
2013-07-03 14:42:00,107.6,50.0,29.68,SSE,168,10.0,0.0,15,0.00,,,0.00,913,WeatherHawk,2013-07-03 21:42:00,
2013-07-03 14:43:00,107.6,50.0,29.68,SSE,168,10.0,-999.0,15,0.00,,,0.00,913,WeatherHawk,2013-07-03 21:43:00,
2013-07-03 14:46:00,107.6,50.0,29.68,South,188,13.0,0.0,15,0.00,,,0.00,907,WeatherHawk,2013-07-03 21:46:00,
2013-07-03 14:47:00,107.6,50.0,29.68,South,190,11.0,0.0,15,0.00,,,0.00,902,WeatherHawk,2013-07-03 21:47:00,
2013-07-03 14:48:00,107.6,50.0,29.68,South,190,11.0,-999.0,15,0.00,,,0.00,902,WeatherHawk,2013-07-03 21:48:00,
2013-07-03 14:53:00,108.7,49.0,29.68,SSW,195,12.0,0.0,14,0.00,,,0.00,895,WeatherHawk,2013-07-03 21:53:00,
2013-07-03 14:57:00,108.0,48.4,29.68,SSE,160,10.0,0.0,14,0.00,,,0.00,880,WeatherHawk,2013-07-03 21:57:00,
2013-07-03 14:58:00,107.8,48.3,29.68,ESE,119,6.0,0.0,14,0.00,,,0.00,879,WeatherHawk,2013-07-03 21:58:00,
2013-07-03 15:01:00,108.5,48.8,29.68,South,186,14.0,0.0,14,0.00,,,0.00,872,WeatherHawk,2013-07-03 22:01:00,
2013-07-03 15:03:00,108.3,48.7,29.68,SSW,199,11.0,0.0,14,0.00,,,0.00,862,WeatherHawk,2013-07-03 22:03:00,
2013-07-03 15:08:00,108.1,48.5,29.67,South,172,9.0,-999.0,14,0.00,,,0.00,860,WeatherHawk,2013-07-03 22:08:00,
2013-07-03 15:09:00,108.9,49.1,29.67,South,183,9.0,0.0,14,0.00,,,0.00,850,WeatherHawk,2013-07-03 22:09:00,
2013-07-03 15:13:00,108.9,49.1,29.67,SSE,168,7.0,0.0,14,0.00,,,0.00,843,WeatherHawk,2013-07-03 22:13:00,
2013-07-03 15:16:00,108.9,49.1,29.67,South,191,9.0,0.0,14,0.00,,,0.00,830,WeatherHawk,2013-07-03 22:16:00,
2013-07-03 15:19:00,109.2,49.4,29.67,SSW,192,5.0,0.0,14,0.00,,,0.00,825,WeatherHawk,2013-07-03 22:19:00,
2013-07-03 15:21:00,108.9,49.1,29.67,SSW,199,2.0,0.0,14,0.00,,,0.00,821,WeatherHawk,2013-07-03 22:21:00,
2013-07-03 15:23:00,109.0,49.2,29.67,SW,219,7.0,0.0,14,0.00,,,0.00,813,WeatherHawk,2013-07-03 22:23:00,
2013-07-03 15:28:00,108.9,49.1,29.67,SW,215,8.0,0.0,14,0.00,,,0.00,804,WeatherHawk,2013-07-03 22:28:00,
2013-07-03 15:30:00,108.9,49.1,29.66,South,189,3.0,0.0,14,0.00,,,0.00,796,WeatherHawk,2013-07-03 22:30:00,
2013-07-03 15:32:00,109.4,49.5,29.66,SW,232,9.0,0.0,14,0.00,,,0.00,784,WeatherHawk,2013-07-03 22:32:00,
2013-07-03 15:36:00,109.9,49.9,29.66,SW,228,11.0,0.0,14,0.00,,,0.00,773,WeatherHawk,2013-07-03 22:36:00,
2013-07-03 15:38:00,109.9,49.9,29.66,WSW,242,10.0,0.0,14,0.00,,,0.00,765,WeatherHawk,2013-07-03 22:38:00,
2013-07-03 15:43:00,109.6,49.7,29.66,WSW,245,8.0,0.0,14,0.00,,,0.00,755,WeatherHawk,2013-07-03 22:43:00,
2013-07-03 15:48:00,109.2,49.4,29.65,WSW,257,8.0,0.0,14,0.00,,,0.00,738,WeatherHawk,2013-07-03 22:48:00,
2013-07-03 15:49:00,109.4,49.5,29.65,WSW,245,12.0,0.0,14,0.00,,,0.00,735,WeatherHawk,2013-07-03 22:49:00,
2013-07-03 15:53:00,109.2,49.4,29.65,West,261,10.0,0.0,14,0.00,,,0.00,724,WeatherHawk,2013-07-03 22:53:00,
2013-07-03 15:56:00,109.2,49.4,29.65,WSW,238,6.0,0.0,14,0.00,,,0.00,711,WeatherHawk,2013-07-03 22:56:00,
2013-07-03 15:58:00,109.2,49.4,29.65,WSW,251,8.0,0.0,14,0.00,,,0.00,710,WeatherHawk,2013-07-03 22:58:00,
2013-07-03 16:01:00,109.2,49.4,29.65,WSW,256,9.0,0.0,14,0.00,,,0.00,702,WeatherHawk,2013-07-03 23:01:00,
2013-07-03 16:03:00,109.2,49.4,29.65,WSW,256,9.0,-999.0,14,0.00,,,0.00,702,WeatherHawk,2013-07-03 23:03:00,
2013-07-03 16:06:00,109.6,49.7,29.65,SW,228,12.0,0.0,14,0.00,,,0.00,686,WeatherHawk,2013-07-03 23:06:00,
2013-07-03 16:08:00,109.0,49.2,29.64,WSW,254,6.0,0.0,14,0.00,,,0.00,677,WeatherHawk,2013-07-03 23:08:00,
2013-07-03 16:13:00,109.0,49.2,29.64,WSW,254,6.0,0.0,14,0.00,,,0.00,677,WeatherHawk,2013-07-03 23:13:00,
2013-07-03 16:15:00,109.2,49.4,29.64,SSW,203,7.0,0.0,14,0.00,,,0.00,659,WeatherHawk,2013-07-03 23:15:00,
2013-07-03 16:18:00,109.2,49.4,29.64,SSW,203,7.0,0.0,14,0.00,,,0.00,659,WeatherHawk,2013-07-03 23:18:00,
2013-07-03 16:19:00,109.0,49.2,29.64,SW,220,8.0,0.0,14,0.00,,,0.00,646,WeatherHawk,2013-07-03 23:19:00,
2013-07-03 16:21:00,109.4,49.5,29.64,West,265,10.0,0.0,14,0.00,,,0.00,641,WeatherHawk,2013-07-03 23:21:00,
2013-07-03 16:23:00,109.2,51.2,29.63,WSW,258,9.0,-999.0,15,0.00,,,0.00,637,WeatherHawk,2013-07-03 23:23:00,
2013-07-03 16:24:00,109.2,49.4,29.63,WSW,257,7.0,0.0,14,0.00,,,0.00,630,WeatherHawk,2013-07-03 23:24:00,
2013-07-03 16:25:00,109.4,49.5,29.63,WSW,241,7.0,0.0,14,0.00,,,0.00,627,WeatherHawk,2013-07-03 23:25:00,
2013-07-03 16:28:00,109.4,49.5,29.63,WSW,245,7.0,0.0,14,0.00,,,0.00,616,WeatherHawk,2013-07-03 23:28:00,
2013-07-03 16:33:00,109.4,49.5,29.63,SW,236,7.0,0.0,14,0.00,,,0.00,600,WeatherHawk,2013-07-03 23:33:00,
2013-07-03 16:35:00,109.0,49.2,29.63,WSW,240,8.0,0.0,14,0.00,,,0.00,589,WeatherHawk,2013-07-03 23:35:00,
2013-07-03 16:40:00,108.7,52.6,29.63,WSW,255,9.0,0.0,16,0.00,,,0.00,567,WeatherHawk,2013-07-03 23:40:00,
2013-07-03 16:41:00,108.7,50.8,29.63,West,263,8.0,0.0,15,0.00,,,0.00,568,WeatherHawk,2013-07-03 23:41:00,
2013-07-03 16:43:00,108.7,50.8,29.63,West,268,11.0,0.0,15,0.00,,,0.00,563,WeatherHawk,2013-07-03 23:43:00,
2013-07-03 16:47:00,108.9,49.1,29.62,WSW,251,9.0,0.0,14,0.00,,,0.00,547,WeatherHawk,2013-07-03 23:47:00,
2013-07-03 16:50:00,109.0,49.2,29.62,WNW,298,5.0,0.0,14,0.00,,,0.00,539,WeatherHawk,2013-07-03 23:50:00,
2013-07-03 16:54:00,109.2,49.4,29.62,WSW,254,9.0,0.0,14,0.00,,,0.00,525,WeatherHawk,2013-07-03 23:54:00,
2013-07-03 16:56:00,109.4,49.5,29.62,WSW,238,8.0,0.0,14,0.00,,,0.00,518,WeatherHawk,2013-07-03 23:56:00,
2013-07-03 16:58:00,109.4,49.5,29.62,WSW,250,9.0,0.0,14,0.00,,,0.00,509,WeatherHawk,2013-07-03 23:58:00,
2013-07-03 16:59:00,109.4,49.5,29.62,SW,232,7.0,0.0,14,0.00,,,0.00,506,WeatherHawk,2013-07-03 23:59:00,
2013-07-03 17:03:00,109.4,49.5,29.62,SW,232,7.0,0.0,14,0.00,,,0.00,506,WeatherHawk,2013-07-04 00:03:00,
2013-07-03 17:05:00,109.6,49.7,29.62,WSW,255,10.0,0.0,14,0.00,,,0.00,485,WeatherHawk,2013-07-04 00:05:00,
2013-07-03 17:07:00,109.2,49.4,29.62,SW,234,6.0,0.0,14,0.00,,,0.00,480,WeatherHawk,2013-07-04 00:07:00,
2013-07-03 17:10:00,109.2,51.2,29.61,West,262,7.0,0.0,15,0.00,,,0.00,467,WeatherHawk,2013-07-04 00:10:00,
2013-07-03 17:17:00,109.4,49.5,29.61,WSW,254,5.0,0.0,14,0.00,,,0.00,437,WeatherHawk,2013-07-04 00:17:00,
2013-07-03 17:18:00,109.4,49.5,29.61,WSW,254,5.0,-999.0,14,0.00,,,0.00,437,WeatherHawk,2013-07-04 00:18:00,
2013-07-03 17:19:00,109.4,49.5,29.61,SSW,194,4.0,0.0,14,0.00,,,0.00,434,WeatherHawk,2013-07-04 00:19:00,
2013-07-03 17:20:00,109.4,49.5,29.61,SW,230,8.0,0.0,14,0.00,,,0.00,429,WeatherHawk,2013-07-04 00:20:00,
2013-07-03 17:26:00,109.0,51.1,29.61,WSW,253,6.0,0.0,15,0.00,,,0.00,406,WeatherHawk,2013-07-04 00:26:00,
2013-07-03 17:28:00,109.2,53.0,29.61,WSW,239,11.0,0.0,16,0.00,,,0.00,402,WeatherHawk,2013-07-04 00:28:00,
2013-07-03 17:33:00,109.2,51.2,29.61,WSW,255,9.0,0.0,15,0.00,,,0.00,382,WeatherHawk,2013-07-04 00:33:00,
2013-07-03 17:35:00,109.0,51.1,29.61,West,265,8.0,0.0,15,0.00,,,0.00,380,WeatherHawk,2013-07-04 00:35:00,
2013-07-03 17:37:00,109.0,49.2,29.61,WSW,253,9.0,0.0,14,0.00,,,0.00,373,WeatherHawk,2013-07-04 00:37:00,
2013-07-03 17:38:00,109.0,49.2,29.61,WSW,254,7.0,-999.0,14,0.00,,,0.00,370,WeatherHawk,2013-07-04 00:38:00,
2013-07-03 17:43:00,108.7,49.0,29.61,WSW,245,4.0,0.0,14,0.00,,,0.00,352,WeatherHawk,2013-07-04 00:43:00,
2013-07-03 17:46:00,108.9,51.0,29.60,WSW,254,7.0,0.0,15,0.00,,,0.00,339,WeatherHawk,2013-07-04 00:46:00,
2013-07-03 17:48:00,108.9,51.0,29.60,WSW,254,7.0,0.0,15,0.00,,,0.00,339,WeatherHawk,2013-07-04 00:48:00,
2013-07-03 17:53:00,108.9,49.1,29.60,West,262,5.0,-999.0,14,0.00,,,0.00,319,WeatherHawk,2013-07-04 00:53:00,
2013-07-03 17:55:00,108.9,49.1,29.60,West,273,5.0,0.0,14,0.00,,,0.00,310,WeatherHawk,2013-07-04 00:55:00,
2013-07-03 17:58:00,108.9,49.1,29.60,WSW,250,7.0,-999.0,14,0.00,,,0.00,301,WeatherHawk,2013-07-04 00:58:00,
2013-07-03 17:59:00,109.0,49.2,29.60,SW,235,9.0,0.0,14,0.00,,,0.00,294,WeatherHawk,2013-07-04 00:59:00,
2013-07-03 18:00:00,108.9,49.1,29.60,WSW,244,10.0,0.0,14,0.00,,,0.00,291,WeatherHawk,2013-07-04 01:00:00,
2013-07-03 18:01:00,108.9,47.1,29.60,SW,230,7.0,0.0,13,0.00,,,0.00,288,WeatherHawk,2013-07-04 01:01:00,
2013-07-03 18:03:00,108.9,47.1,29.60,SW,230,7.0,-999.0,13,0.00,,,0.00,288,WeatherHawk,2013-07-04 01:03:00,
2013-07-03 18:06:00,108.7,47.0,29.60,WSW,251,6.0,0.0,13,0.00,,,0.00,267,WeatherHawk,2013-07-04 01:06:00,
2013-07-03 18:08:00,108.7,47.0,29.60,WSW,251,6.0,0.0,13,0.00,,,0.00,267,WeatherHawk,2013-07-04 01:08:00,
2013-07-03 18:13:00,108.5,48.8,29.60,WSW,252,6.0,0.0,14,0.00,,,0.00,247,WeatherHawk,2013-07-04 01:13:00,
2013-07-03 18:15:00,108.5,48.8,29.60,WSW,252,5.0,0.0,14,0.00,,,0.00,238,WeatherHawk,2013-07-04 01:15:00,
2013-07-03 18:18:00,108.5,46.8,29.60,WSW,241,4.0,0.0,13,0.00,,,0.00,233,WeatherHawk,2013-07-04 01:18:00,
2013-07-03 18:23:00,108.7,47.0,29.60,SW,232,5.0,0.0,13,0.00,,,0.00,220,WeatherHawk,2013-07-04 01:23:00,
2013-07-03 18:28:00,108.9,47.1,29.60,SW,218,5.0,-999.0,13,0.00,,,0.00,199,WeatherHawk,2013-07-04 01:28:00,
2013-07-03 18:32:00,108.7,47.0,29.60,SW,222,7.0,0.0,13,0.00,,,0.00,180,WeatherHawk,2013-07-04 01:32:00,
2013-07-03 18:33:00,108.7,47.0,29.60,SW,222,7.0,-999.0,13,0.00,,,0.00,180,WeatherHawk,2013-07-04 01:33:00,
2013-07-03 18:38:00,108.7,47.0,29.60,SW,214,6.0,0.0,13,0.00,,,0.00,169,WeatherHawk,2013-07-04 01:38:00,
2013-07-03 18:42:00,108.3,46.7,29.60,SSW,212,6.0,0.0,13,0.00,,,0.00,148,WeatherHawk,2013-07-04 01:42:00,
2013-07-03 18:47:00,108.3,46.7,29.60,SW,220,5.0,-999.0,13,0.00,,,0.00,133,WeatherHawk,2013-07-04 01:47:00,
2013-07-03 18:49:00,108.3,46.7,29.60,SW,217,5.0,0.0,13,0.00,,,0.00,129,WeatherHawk,2013-07-04 01:49:00,
2013-07-03 18:52:00,108.3,46.7,29.60,SW,224,6.0,-999.0,13,0.00,,,0.00,123,WeatherHawk,2013-07-04 01:52:00,
2013-07-03 18:53:00,108.3,46.7,29.60,SSW,212,5.0,0.0,13,0.00,,,0.00,115,WeatherHawk,2013-07-04 01:53:00,
2013-07-03 18:56:00,108.1,46.6,29.60,SW,226,5.0,0.0,13,0.00,,,0.00,105,WeatherHawk,2013-07-04 01:56:00,
2013-07-03 18:59:00,108.0,46.4,29.60,SSW,207,6.0,0.0,13,0.00,,,0.00,97,WeatherHawk,2013-07-04 01:59:00,
2013-07-03 19:02:00,108.0,52.0,29.60,South,184,9.0,-999.0,16,0.00,,,0.00,90,WeatherHawk,2013-07-04 02:02:00,
2013-07-03 19:04:00,107.2,53.1,29.60,South,186,11.0,0.0,17,0.00,,,0.00,83,WeatherHawk,2013-07-04 02:04:00,
2013-07-03 19:07:00,106.9,54.4,29.61,South,185,10.0,0.0,18,0.00,,,0.00,77,WeatherHawk,2013-07-04 02:07:00,
2013-07-03 19:11:00,106.5,54.1,29.61,South,182,9.0,0.0,18,0.00,,,0.00,68,WeatherHawk,2013-07-04 02:11:00,
2013-07-03 19:14:00,106.3,53.9,29.61,South,182,12.0,0.0,18,0.00,,,0.00,62,WeatherHawk,2013-07-04 02:14:00,
2013-07-03 19:15:00,106.2,53.8,29.61,South,176,11.0,0.0,18,0.00,,,0.00,61,WeatherHawk,2013-07-04 02:15:00,
2013-07-03 19:22:00,105.3,54.5,29.61,South,187,7.0,0.0,19,0.00,,,0.00,44,WeatherHawk,2013-07-04 02:22:00,
2013-07-03 19:25:00,104.7,55.5,29.60,South,172,10.0,0.0,20,0.00,,,0.00,37,WeatherHawk,2013-07-04 02:25:00,
2013-07-03 19:27:00,104.7,55.5,29.60,South,172,10.0,0.0,20,0.00,,,0.00,37,WeatherHawk,2013-07-04 02:27:00,
2013-07-03 19:28:00,104.4,56.6,29.60,South,176,12.0,0.0,21,0.00,,,0.00,32,WeatherHawk,2013-07-04 02:28:00,
2013-07-03 19:32:00,103.8,56.1,29.60,South,183,11.0,0.0,21,0.00,,,0.00,19,WeatherHawk,2013-07-04 02:32:00,
2013-07-03 19:34:00,103.6,56.0,29.60,South,180,10.0,0.0,21,0.00,,,0.00,17,WeatherHawk,2013-07-04 02:34:00,
2013-07-03 19:37:00,103.5,55.8,29.60,South,186,11.0,0.0,21,0.00,,,0.00,13,WeatherHawk,2013-07-04 02:37:00,
2013-07-03 19:40:00,103.3,55.7,29.61,South,182,11.0,0.0,21,0.00,,,0.00,10,WeatherHawk,2013-07-04 02:40:00,
2013-07-03 19:42:00,103.1,55.5,29.61,South,188,12.0,0.0,21,0.00,,,0.00,9,WeatherHawk,2013-07-04 02:42:00,
2013-07-03 19:47:00,102.7,56.5,29.60,South,186,11.0,-999.0,22,0.00,,,0.00,3,WeatherHawk,2013-07-04 02:47:00,
2013-07-03 19:52:00,102.4,56.2,29.60,South,187,11.0,0.0,22,0.00,,,0.00,3,WeatherHawk,2013-07-04 02:52:00,
2013-07-03 19:57:00,102.0,55.9,19.80,South,187,11.0,0.0,22,0.00,,,0.00,2,WeatherHawk,2013-07-04 02:57:00,
2013-07-03 19:59:00,101.8,55.8,29.60,SSW,192,9.0,0.0,22,0.00,,,0.00,1,WeatherHawk,2013-07-04 02:59:00,
2013-07-03 20:02:00,101.7,55.6,29.60,SSW,193,10.0,-999.0,22,0.00,,,0.00,0,WeatherHawk,2013-07-04 03:02:00,
2013-07-03 20:04:00,100.9,56.3,29.60,South,186,10.0,0.0,23,0.00,,,0.00,0,WeatherHawk,2013-07-04 03:04:00,
2013-07-03 20:06:00,100.8,54.9,29.60,SSW,192,11.0,0.0,22,0.00,,,0.00,0,WeatherHawk,2013-07-04 03:06:00,
2013-07-03 20:07:00,100.8,54.9,29.60,SSW,192,11.0,0.0,22,0.00,,,0.00,0,WeatherHawk,2013-07-04 03:07:00,
2013-07-03 20:12:00,100.6,54.7,29.61,SSW,193,11.0,0.0,22,0.00,,,0.00,0,WeatherHawk,2013-07-04 03:12:00,
2013-07-03 20:17:00,100.4,54.6,29.61,South,189,12.0,0.0,22,0.00,,,0.00,0,WeatherHawk,2013-07-04 03:17:00,
2013-07-03 20:18:00,100.2,55.7,29.61,South,185,12.0,0.0,23,0.00,,,0.00,0,WeatherHawk,2013-07-04 03:18:00,
2013-07-03 20:19:00,100.0,55.5,29.61,South,184,10.0,0.0,23,0.00,,,0.00,1,WeatherHawk,2013-07-04 03:19:00,
2013-07-03 20:22:00,100.0,55.5,29.61,South,184,10.0,-999.0,23,0.00,,,0.00,1,WeatherHawk,2013-07-04 03:22:00,
2013-07-03 20:24:00,99.9,55.4,29.61,South,191,10.0,0.0,23,0.00,,,0.00,0,WeatherHawk,2013-07-04 03:24:00,
2013-07-03 20:26:00,99.5,55.1,29.61,South,187,9.0,0.0,23,0.00,,,0.00,0,WeatherHawk,2013-07-04 03:26:00,
2013-07-03 20:27:00,99.5,55.1,29.61,South,183,14.0,0.0,23,0.00,,,0.00,0,WeatherHawk,2013-07-04 03:27:00,
2013-07-03 20:34:00,99.0,56.9,29.62,SSW,195,10.0,0.0,25,0.00,,,0.00,0,WeatherHawk,2013-07-04 03:34:00,
2013-07-03 20:35:00,98.6,56.6,29.62,South,188,8.0,0.0,25,0.00,,,0.00,0,WeatherHawk,2013-07-04 03:35:00,
2013-07-03 20:39:00,98.2,57.4,29.62,SSW,192,11.0,0.0,26,0.00,,,0.00,0,WeatherHawk,2013-07-04 03:39:00,
2013-07-03 20:40:00,98.2,57.4,29.62,South,187,9.0,0.0,26,0.00,,,0.00,0,WeatherHawk,2013-07-04 03:40:00,
2013-07-03 20:41:00,98.1,57.3,29.62,South,185,11.0,0.0,26,0.00,,,0.00,0,WeatherHawk,2013-07-04 03:41:00,
2013-07-03 20:44:00,97.7,57.0,29.62,South,189,13.0,0.0,26,0.00,,,0.00,0,WeatherHawk,2013-07-04 03:44:00,
2013-07-03 20:47:00,97.5,56.8,29.62,South,190,10.0,0.0,26,0.00,,,0.00,0,WeatherHawk,2013-07-04 03:47:00,
2013-07-03 20:49:00,97.5,56.8,29.62,South,186,13.0,0.0,26,0.00,,,0.00,0,WeatherHawk,2013-07-04 03:49:00,
2013-07-03 20:53:00,97.5,56.8,29.62,South,184,15.0,0.0,26,0.00,,,0.00,0,WeatherHawk,2013-07-04 03:53:00,
2013-07-03 20:55:00,97.2,56.5,29.62,South,187,12.0,0.0,26,0.00,,,0.00,0,WeatherHawk,2013-07-04 03:55:00,
2013-07-03 21:03:00,96.8,57.2,29.63,SSW,194,8.0,0.0,27,0.00,,,0.00,0,WeatherHawk,2013-07-04 04:03:00,
2013-07-03 21:04:00,96.8,56.2,29.63,SSW,192,8.0,0.0,26,0.00,,,0.00,0,WeatherHawk,2013-07-04 04:04:00,
2013-07-03 21:06:00,96.8,57.2,29.63,South,189,7.0,0.0,27,0.00,,,0.00,0,WeatherHawk,2013-07-04 04:06:00,
2013-07-03 21:08:00,96.6,57.1,29.63,SSW,195,7.0,-999.0,27,0.00,,,0.00,0,WeatherHawk,2013-07-04 04:08:00,
2013-07-03 21:09:00,96.6,57.1,29.63,South,188,8.0,0.0,27,0.00,,,0.00,0,WeatherHawk,2013-07-04 04:09:00,
2013-07-03 21:10:00,96.4,55.9,29.63,South,185,10.0,0.0,26,0.00,,,0.00,0,WeatherHawk,2013-07-04 04:10:00,
2013-07-03 21:13:00,96.6,56.0,29.63,South,186,9.0,-999.0,26,0.00,,,0.00,0,WeatherHawk,2013-07-04 04:13:00,
2013-07-03 21:14:00,96.4,55.9,29.63,South,182,9.0,0.0,26,0.00,,,0.00,0,WeatherHawk,2013-07-04 04:14:00,
2013-07-03 21:18:00,96.3,54.7,29.64,South,184,9.0,0.0,25,0.00,,,0.00,0,WeatherHawk,2013-07-04 04:18:00,
2013-07-03 21:21:00,96.1,54.5,29.64,South,182,9.0,0.0,25,0.00,,,0.00,0,WeatherHawk,2013-07-04 04:21:00,
2013-07-03 21:23:00,96.1,54.5,29.64,South,179,9.0,-999.0,25,0.00,,,0.00,0,WeatherHawk,2013-07-04 04:23:00,
2013-07-03 21:24:00,96.1,53.4,29.64,South,187,11.0,0.0,24,0.00,,,0.00,0,WeatherHawk,2013-07-04 04:24:00,
2013-07-03 21:25:00,96.1,53.4,29.64,South,191,11.0,0.0,24,0.00,,,0.00,0,WeatherHawk,2013-07-04 04:25:00,
2013-07-03 21:27:00,96.1,53.4,29.64,SSW,195,9.0,0.0,24,0.00,,,0.00,0,WeatherHawk,2013-07-04 04:27:00,
2013-07-03 21:28:00,96.1,53.4,29.64,South,188,8.0,0.0,24,0.00,,,0.00,0,WeatherHawk,2013-07-04 04:28:00,
2013-07-03 21:30:00,95.9,53.2,29.64,SSW,192,9.0,0.0,24,0.00,,,0.00,0,WeatherHawk,2013-07-04 04:30:00,
2013-07-03 21:31:00,95.9,53.2,29.64,South,189,9.0,0.0,24,0.00,,,0.00,0,WeatherHawk,2013-07-04 04:31:00,
2013-07-03 21:33:00,95.9,53.2,29.64,SSW,200,7.0,0.0,24,0.00,,,0.00,0,WeatherHawk,2013-07-04 04:33:00,
2013-07-03 21:36:00,95.4,55.0,29.64,SSW,204,9.0,0.0,26,0.00,,,0.00,0,WeatherHawk,2013-07-04 04:36:00,
2013-07-03 21:38:00,95.4,55.0,29.64,SSW,204,9.0,0.0,26,0.00,,,0.00,0,WeatherHawk,2013-07-04 04:38:00,
2013-07-03 21:39:00,95.0,53.6,29.64,SSW,203,9.0,0.0,25,0.00,,,0.00,0,WeatherHawk,2013-07-04 04:39:00,
2013-07-03 21:43:00,95.0,53.6,29.64,SSW,203,9.0,0.0,25,0.00,,,0.00,0,WeatherHawk,2013-07-04 04:43:00,
2013-07-03 21:47:00,95.0,54.7,29.64,South,191,11.0,0.0,26,0.00,,,0.00,0,WeatherHawk,2013-07-04 04:47:00,
2013-07-03 21:48:00,95.0,54.7,29.64,South,191,11.0,0.0,26,0.00,,,0.00,0,WeatherHawk,2013-07-04 04:48:00,
2013-07-03 21:53:00,95.0,54.7,29.64,SSW,201,8.0,-999.0,26,0.00,,,0.00,0,WeatherHawk,2013-07-04 04:53:00,
2013-07-03 21:57:00,94.6,55.4,29.65,SSW,208,9.0,0.0,27,0.00,,,0.00,0,WeatherHawk,2013-07-04 04:57:00,
2013-07-03 21:58:00,94.6,55.4,29.65,SSW,208,9.0,0.0,27,0.00,,,0.00,0,WeatherHawk,2013-07-04 04:58:00,
2013-07-03 22:03:00,94.6,55.4,29.65,South,190,8.0,0.0,27,0.00,,,0.00,0,WeatherHawk,2013-07-04 05:03:00,
2013-07-03 22:04:00,94.5,55.3,29.65,SSW,197,8.0,0.0,27,0.00,,,0.00,1,WeatherHawk,2013-07-04 05:04:00,
2013-07-03 22:08:00,94.5,55.3,29.65,South,189,8.0,0.0,27,0.00,,,0.00,0,WeatherHawk,2013-07-04 05:08:00,
2013-07-03 22:10:00,94.3,56.1,29.65,SSW,195,8.0,0.0,28,0.00,,,0.00,0,WeatherHawk,2013-07-04 05:10:00,
2013-07-03 22:13:00,94.3,56.1,29.65,SSW,195,8.0,0.0,28,0.00,,,0.00,0,WeatherHawk,2013-07-04 05:13:00,
2013-07-03 22:14:00,94.3,56.1,29.65,SSW,193,8.0,0.0,28,0.00,,,0.00,0,WeatherHawk,2013-07-04 05:14:00,
2013-07-03 22:18:00,93.9,55.8,29.65,South,187,8.0,0.0,28,0.00,,,0.00,0,WeatherHawk,2013-07-04 05:18:00,
2013-07-03 22:23:00,93.9,55.8,29.65,South,182,8.0,-999.0,28,0.00,,,0.00,0,WeatherHawk,2013-07-04 05:23:00,
2013-07-03 22:28:00,93.9,56.8,29.65,South,187,9.0,0.0,29,0.00,,,0.00,0,WeatherHawk,2013-07-04 05:28:00,
2013-07-03 22:33:00,93.7,56.6,29.65,South,190,9.0,0.0,29,0.00,,,0.00,0,WeatherHawk,2013-07-04 05:33:00,
2013-07-03 22:38:00,93.7,56.6,29.65,South,188,7.0,0.0,29,0.00,,,0.00,0,WeatherHawk,2013-07-04 05:38:00,
2013-07-03 22:39:00,93.6,56.5,29.65,South,186,9.0,0.0,29,0.00,,,0.00,0,WeatherHawk,2013-07-04 05:39:00,
2013-07-03 22:40:00,93.6,56.5,29.64,South,185,10.0,0.0,29,0.00,,,0.00,0,WeatherHawk,2013-07-04 05:40:00,
2013-07-03 22:43:00,93.4,56.3,29.65,South,188,8.0,-999.0,29,0.00,,,0.00,0,WeatherHawk,2013-07-04 05:43:00,
2013-07-03 22:45:00,93.4,56.3,29.65,South,188,7.0,0.0,29,0.00,,,0.00,0,WeatherHawk,2013-07-04 05:45:00,
2013-07-03 22:46:00,93.4,56.3,29.64,South,185,8.0,0.0,29,0.00,,,0.00,1,WeatherHawk,2013-07-04 05:46:00,
2013-07-03 22:48:00,93.4,56.3,29.64,South,185,8.0,-999.0,29,0.00,,,0.00,1,WeatherHawk,2013-07-04 05:48:00,
2013-07-03 22:51:00,93.2,56.2,29.64,South,185,7.0,0.0,29,0.00,,,0.00,0,WeatherHawk,2013-07-04 05:51:00,
2013-07-03 22:53:00,93.2,56.2,29.64,South,187,7.0,0.0,29,0.00,,,0.00,0,WeatherHawk,2013-07-04 05:53:00,
2013-07-03 22:54:00,93.2,56.2,29.64,South,182,7.0,0.0,29,0.00,,,0.00,0,WeatherHawk,2013-07-04 05:54:00,
2013-07-03 22:58:00,93.2,56.2,29.64,South,182,7.0,0.0,29,0.00,,,0.00,0,WeatherHawk,2013-07-04 05:58:00,
2013-07-03 23:01:00,93.2,56.2,29.65,South,186,6.0,0.0,29,0.00,,,0.00,0,WeatherHawk,2013-07-04 06:01:00,
2013-07-03 23:03:00,93.4,56.3,29.65,South,181,7.0,0.0,29,0.00,,,0.00,0,WeatherHawk,2013-07-04 06:03:00,
2013-07-03 23:04:00,93.4,56.3,29.65,South,181,6.0,0.0,29,0.00,,,0.00,0,WeatherHawk,2013-07-04 06:04:00,
2013-07-03 23:07:00,93.4,56.3,29.65,South,171,6.0,0.0,29,0.00,,,0.00,0,WeatherHawk,2013-07-04 06:07:00,
2013-07-03 23:08:00,93.4,56.3,29.65,South,171,6.0,0.0,29,0.00,,,0.00,0,WeatherHawk,2013-07-04 06:08:00,
2013-07-03 23:10:00,93.0,56.0,29.64,SSE,167,7.0,0.0,29,0.00,,,0.00,0,WeatherHawk,2013-07-04 06:10:00,
2013-07-03 23:13:00,92.8,55.9,29.64,South,174,7.0,0.0,29,0.00,,,0.00,1,WeatherHawk,2013-07-04 06:13:00,
2013-07-03 23:18:00,93.0,56.0,29.65,South,179,7.0,0.0,29,0.00,,,0.00,0,WeatherHawk,2013-07-04 06:18:00,
2013-07-03 23:23:00,92.8,55.9,29.65,South,175,6.0,0.0,29,0.00,,,0.00,0,WeatherHawk,2013-07-04 06:23:00,
2013-07-03 23:24:00,92.7,55.7,29.65,South,175,5.0,0.0,29,0.00,,,0.00,0,WeatherHawk,2013-07-04 06:24:00,
2013-07-03 23:28:00,92.5,55.5,29.65,SSE,163,6.0,0.0,29,0.00,,,0.00,0,WeatherHawk,2013-07-04 06:28:00,
2013-07-03 23:33:00,91.9,56.0,29.65,SSE,166,6.0,0.0,30,0.00,,,0.00,0,WeatherHawk,2013-07-04 06:33:00,
2013-07-03 23:34:00,91.9,56.0,29.65,SSE,166,6.0,0.0,30,0.00,,,0.00,0,WeatherHawk,2013-07-04 06:34:00,
2013-07-03 23:35:00,91.8,55.9,29.65,SSE,157,7.0,0.0,30,0.00,,,0.00,0,WeatherHawk,2013-07-04 06:35:00,
2013-07-03 23:37:00,91.6,55.7,29.65,SSE,160,6.0,0.0,30,0.00,,,0.00,0,WeatherHawk,2013-07-04 06:37:00,
2013-07-03 23:38:00,91.6,55.7,29.65,SSE,160,6.0,-999.0,30,0.00,,,0.00,0,WeatherHawk,2013-07-04 06:38:00,
2013-07-03 23:39:00,91.4,55.6,29.65,SSE,152,6.0,0.0,30,0.00,,,0.00,0,WeatherHawk,2013-07-04 06:39:00,
2013-07-03 23:41:00,91.4,55.6,29.65,SSE,152,7.0,0.0,30,0.00,,,0.00,0,WeatherHawk,2013-07-04 06:41:00,
2013-07-03 23:42:00,91.4,55.6,29.64,SSE,148,7.0,0.0,30,0.00,,,0.00,0,WeatherHawk,2013-07-04 06:42:00,
2013-07-03 23:43:00,91.4,55.6,29.64,SSE,148,7.0,0.0,30,0.00,,,0.00,0,WeatherHawk,2013-07-04 06:43:00,
2013-07-03 23:47:00,91.4,54.6,29.64,SE,143,7.0,0.0,29,0.00,,,0.00,0,WeatherHawk,2013-07-04 06:47:00,
2013-07-03 23:48:00,91.4,54.6,29.64,SE,143,7.0,-999.0,29,0.00,,,0.00,0,WeatherHawk,2013-07-04 06:48:00,
2013-07-03 23:53:00,91.2,54.5,29.64,SE,144,7.0,0.0,29,0.00,,,0.00,0,WeatherHawk,2013-07-04 06:53:00,
2013-07-03 23:55:00,91.0,54.3,29.64,SSE,148,6.0,0.0,29,0.00,,,0.00,0,WeatherHawk,2013-07-04 06:55:00,
2013-07-03 23:57:00,90.9,54.2,29.64,SSE,149,8.0,0.0,29,0.00,,,0.00,0,WeatherHawk,2013-07-04 06:57:00,
2013-07-03 23:58:00,90.9,54.2,29.64,SSE,149,8.0,-999.0,29,0.00,,,0.00,0,WeatherHawk,2013-07-04 06:58:00,